Regional Weather Roundup
Issued by NWS Green Bay, WI

Home | Current Version | Previous Version | Graphics & Text | Print | Product List | Glossary Off
Versions: 1 2 3 4 5 6 7 8 9 10 11 12 13 14 15 16 17 18 19 20 21 22 23 24 25 26 27 28 29 30 31 32 33 34 35 36 37 38 39 40 41 42 43 44 45 46 47 48 49 50

000
ASUS43 KGRB 261110
RWRGRB

NORTH-CENTRAL AND NORTHEAST WISCONSIN REGIONAL WEATHER ROUNDUP
NATIONAL WEATHER SERVICE GREEN BAY WI
500 AM CST FRI DEC 26 2014

WIZ005-009-010>012-018-019-261200-
NORTH CENTRAL WISCONSIN

CITY           SKY/WX    TMP DP  RH WIND       PRES   REMARKS
IRONWOOD       CLOUDY    28  28 100 CALM      29.90R
MANITOWISH WTR CLOUDY    27  27 100 CALM      29.89S
ARBOR VITAE    CLOUDY    32  31  95 CALM      29.89S FOG
EAGLE RIVER    CLOUDY    29  29 100 CALM      29.89S FOG
LAND O LAKES   CLOUDY    28  28  99 CALM      29.90S
RHINELANDER    CLOUDY    29  27  92 NE3       29.88S
PHILLIPS       CLOUDY    29  28  96 N5        29.89R
ANTIGO         FOG       24  24 100 CALM      29.88S VSB 1/2
TOMAHAWK       CLOUDY    29  28  96 CALM      29.88F FOG
MERRILL        MOCLDY    27  27 100 NE3       29.88S FOG
$$

WIZ013-073-261200-
NORTHEAST WISCONSIN

CITY           SKY/WX    TMP DP  RH WIND       PRES   REMARKS
IRON MOUNTAIN  CLOUDY    31  29  92 CALM      29.91S
MARINETTE      PTCLDY    28  27  93 CALM      29.93S
OCONTO         MOCLDY    25  25 100 CALM      29.92F
$$

WIZ017-030-035>037-045-261200-
CENTRAL WISCONSIN

CITY           SKY/WX    TMP DP  RH WIND       PRES   REMARKS
MEDFORD        CLOUDY    26  26  97 NE5       29.86S FOG
WAUSAU         CLOUDY    28  27  96 CALM      29.87F
MOSINEE        NOT AVBL
MARSHFIELD     MOCLDY    28  25  88 E5        29.87S FOG
WISC RAPIDS    PTCLDY    25  23  92 CALM      29.89F FOG
STEVENS POINT  FOG       24  24  99 CALM      29.89S VSB 1
WAUPACA        PTCLDY    29  28  96 N3        29.91S FOG
SHAWANO        PTCLDY    28  27  95 CALM      29.91F FOG
CLINTONVILLE   PTCLDY    27  27 100 CALM      29.91S FOG
$$

WIZ038-039-048-051-261200-
FOX VALLEY

CITY           SKY/WX    TMP DP  RH WIND       PRES   REMARKS
NWS GREEN BAY  MOCLDY    31  30  96 CALM      29.92F FOG
APPLETON       NOT AVBL
OSHKOSH        MOCLDY    35  32  88 S6        29.91S
FOND DU LAC    MOCLDY    37  32  82 S13       29.91S
$$

WIZ022-050-052-261200-
EAST CENTRAL WISCONSIN

CITY           SKY/WX    TMP DP  RH WIND       PRES   REMARKS
STURGEON BAY   PTCLDY    34  30  86 S5        29.94F
MANITOWOC      PTCLDY    31  29  92 CALM      29.93F
SHEBOYGAN      PTCLDY    34  31  88 S3        29.93S
$$

LMZ563-521-522-541>543-261200-
LAKESHORE

STATION/POSITION TIME  TEMP    WIND        PRES    VSBY  WAVE
                       AIR SEA DIR/SP/G                  HT/PER
                 (UTC) (F)     (DEG/KT/KT) (MB)    (MI)  (FT/S)
SHEBOYGAN LKSHOR 1100   39 39  180/ 11/ 12 1014.3F
KEWAUNEE LKSHORE 1100   33      CALM  /  1 1012.9S
ALGOMA MARINA    1100             CALM       N/A
NORTHPORT PIER   1100   33     320/  1/  3 1014.2R
SISTER BAY LKSHO 1100          170/  7/  9   N/A
CHAMBERS ISLAND  1100   31      CALM  /  1 1013.9F
MENOMINEE LKSHOR 1100   32     320/  2/  3 1014.2S
$$


USA.gov is the U.S. government's official web portal to all federal, state and local government web resources and services.